[Iaude] MPEC V22: 2023 VK [a=1.56,e=0.42,i=17.8,H=25.9]
    mpec at marsden.cfa.harvard.edu 
    mpec at marsden.cfa.harvard.edu
       
    Fri Nov  3 23:02:51 EDT 2023
    
    
  
M.P.E.C. 2023-V22                              Issued 2023 November 4, 03:01 UT
     The Minor Planet Electronic Circulars contain information on unusual
         minor planets, routine data on comets and natural satellites,
         and occasional editorial announcements.  They are published
    on behalf of Division F of the International Astronomical Union by the
          Minor Planet Center, Smithsonian Astrophysical Observatory,
                          Cambridge, MA 02138, U.S.A.
			  
             Prepared using the Tamkin Foundation Computer Network
                              MPC at CFA.HARVARD.EDU
            URL https://www.minorplanetcenter.net/    ISSN 1523-6714
                                    2023 VK                                     
Observations:
     K23V00K KC2023 11 02.43028900 25 44.751+22 17 41.35         19.30GVEV022F52
     K23V00K* C2023 11 03.17685000 57 05.304+15 24 01.23         19.4 GVEV022U68
     K23V00K  C2023 11 03.18019200 57 12.380+15 22 17.84         19.4 GVEV022U68
     K23V00K  C2023 11 03.19808800 57 50.172+15 13 04.87         19.3 GVEV022U68
     K23V00K  C2023 11 03.20143000 57 57.177+15 11 22.65         19.3 GVEV022U68
     K23V00K  C2023 11 03.21077200 58 16.741+15 06 34.79         19.4 GVEV022U74
     K23V00K  C2023 11 03.21469200 58 24.934+15 04 34.37         19.4 GVEV022U74
     K23V00K  C2023 11 03.26866801 00 16.531+14 36 59.97         19.2 GVEV022U74
     K23V00K  C2023 11 03.27258901 00 24.509+14 35 01.24         19.2 GVEV022U74
     K23V00K KC2023 11 03.75887401 16 36.137+10 40 02.10         18.8 GVEV022J95
     K23V00K KC2023 11 03.76336901 16 44.155+10 38 01.03         19.9 GVEV022J95
     K23V00K KC2023 11 03.76846701 16 53.273+10 35 42.97         19.4 GVEV022J95
     K23V00K KC2023 11 03.77304201 17 01.454+10 33 40.46         19.4 GVEV022J95
     K23V00K pC2023 11 04.00454801 23 30.46 +08 52 36.3          19.3 GVEV022L01
     K23V00K pC2023 11 04.00620501 23 33.14 +08 51 53.5          19.5 GVEV022L01
     K23V00K pC2023 11 04.01077001 23 40.59 +08 49 57.9          19.4 GVEV022L01
Observer details:
F52 Pan-STARRS 2, Haleakala.  Observers J. Bulger, T. Lowe, P. Minguez, A.
    Schultz, I. Smith.  Measurers K. Chambers, T. de Boer, J. Fairlamb, H.
    Gao, M. Huber, C.-C. Lin, E. Magnier, Y. Ramanjooloo, R. Wainscoat, R.
    Weryk.  1.8-m Ritchey-Chretien + CCD.
J95 Great Shefford.  Observer P. Birtwhistle.  0.41-m f/6.3 Schmidt-Cassegrain
    + CCD.
L01 Visnjan Observatory, Tican.  Observers K. Korlevic, L. Poropat.  Measurer
    K. Korlevic.  1.0-m f/2.9 reflector + CCD.
U68 JPL SynTrack Robotic Telescope, Auberry.  Observers N. Saini, C. Zhai, R.
    Trahan, M. Zhan, M. Shao.  0.28-m Reflector + CCD.
U74 JPL SynTrack Robotic Telescope 2, Auberry.  Observers N. Saini, C. Zhai,
    R. Trahan, M. Zhan, M. Shao.  0.36-m Reflector + CCD.
Orbital elements:
2023 VK                                                  Earth MOID = 0.0250 AU
Epoch 2023 Sept. 13.0 TT = JDT 2460200.5                Veres                   
M 355.30665              (2000.0)            P               Q                  
n   0.50413006     Peri.  126.46094     +0.94872060     +0.24653065             
a   1.5635352      Node   220.35245     -0.28016281     +0.94565188             
e   0.4225406      Incl.   17.79390     +0.14641732     +0.21204991             
P   1.96           H   25.92          G   0.15           U   8                  
Residuals in seconds of arc
231102 F52  0.0   0.0     231103 U74  0.1-  0.1+    231103 J95  0.1+  0.4+
231103 U68  0.0   0.3+    231103 U74  0.1+  0.8-    231104 L01  0.2+  0.2-
231103 U68  0.1-  0.2+    231103 U74  0.6-  0.1+    231104 L01  0.2-  0.5-
231103 U68  0.3+  0.6-    231103 J95  0.3+  0.2-    231104 L01  0.0   0.8+
231103 U68  0.0   0.2+    231103 J95  0.2-  0.2+
231103 U74  0.1-  0.1-    231103 J95  0.2-  0.4-
Ephemeris:
2023 VK                  a,e,i = 1.56, 0.42, 18                  q = 0.9029
Date    TT    R. A. (2000) Decl.     Delta      r    Elong.  Phase     V
2023 10 05    16 11 25.2 +30 06 06   0.2161  0.9151    61.0   107.1    26.4
...
2023 10 20    16 54 23.8 +36 10 50   0.1014  0.9585    65.6   108.9    25.0
...
2023 10 28    18 54 20.5 +45 17 36   0.04399 0.9923    86.8    90.7    22.3
...
2023 11 03    00 50 15.2 +16 59 19   0.03190 1.0214   155.9    23.4    19.6
2023 11 04    01 23 28.4 +08 57 21   0.03635 1.0265   161.7    17.7    19.7
2023 11 05    01 47 40.5 +02 44 13   0.04192 1.0317   162.2    17.1    20.0
...
2023 11 11    02 51 54.5 -13 24 15   0.08493 1.0642   149.3    28.4    22.0
...
2023 11 19    03 17 09.4 -18 23 51   0.1498  1.1105   142.1    33.2    23.4
...
2023 12 04    03 33 45.5 -19 00 44   0.2804  1.2030   135.9    34.8    25.0
M. P. C. Staff               (C) Copyright 2023 MPC           M.P.E.C. 2023-V22
    
    
More information about the Iaude
mailing list